DLH273 LIML-EDDF

Flight info

Callsign DLH273
Flight time 0h 50m
Altitude 30000
Route PEPAG N851 UTAVO DCT ROLSA DCT LADOL T163 EMPAX EMPAX5B
Aircraft A320/M-SDE3FGHIRWY/LB1

Departure

Time 2026-05-06 10:40
Airport Milano Linate Airport (LIML)

Arrival

Time 2026-05-06 11:30
Airport Frankfurt Main Airport (EDDF)
Time Latitude Longitude Altitude Speed Heading
2026-05-06 10:11 45.45973 9.27967 360 ft 0 kts 360°
2026-05-06 10:29 45.45955 9.27967 360 ft 3 kts 360°
2026-05-06 10:29 45.45934 9.27966 360 ft 3 kts 360°
2026-05-06 10:29 45.45916 9.27967 363 ft 3 kts 341°
2026-05-06 10:29 45.45903 9.27978 361 ft 3 kts 279°
2026-05-06 10:30 45.45904 9.28007 360 ft 3 kts 259°
2026-05-06 10:30 45.45906 9.28031 360 ft 0 kts 271°
2026-05-06 10:32 45.45906 9.28025 360 ft 2 kts 271°
2026-05-06 10:33 45.45902 9.28000 360 ft 2 kts 243°
2026-05-06 10:33 45.45891 9.27988 362 ft 2 kts 208°
2026-05-06 10:33 45.45859 9.27984 360 ft 7 kts 181°
2026-05-06 10:33 45.45794 9.27983 360 ft 11 kts 180°
2026-05-06 10:34 45.45708 9.27982 360 ft 14 kts 181°
2026-05-06 10:34 45.45641 9.27980 360 ft 15 kts 181°
2026-05-06 10:34 45.45481 9.27978 362 ft 19 kts 180°
2026-05-06 10:34 45.45383 9.27974 360 ft 12 kts 194°
2026-05-06 10:35 45.45307 9.27920 362 ft 12 kts 207°
2026-05-06 10:35 45.45228 9.27874 360 ft 13 kts 193°
2026-05-06 10:35 45.45133 9.27874 360 ft 15 kts 175°
2026-05-06 10:35 45.45020 9.27887 362 ft 18 kts 175°
2026-05-06 10:36 45.44937 9.27903 360 ft 19 kts 162°
2026-05-06 10:36 45.44806 9.27944 364 ft 20 kts 175°
2026-05-06 10:36 45.44659 9.27959 360 ft 22 kts 175°
2026-05-06 10:36 45.44501 9.27976 360 ft 24 kts 175°
2026-05-06 10:37 45.44333 9.27994 363 ft 25 kts 175°
2026-05-06 10:37 45.44160 9.28013 360 ft 25 kts 175°
2026-05-06 10:37 45.43982 9.28032 361 ft 26 kts 175°
2026-05-06 10:37 45.43800 9.28052 363 ft 27 kts 176°
2026-05-06 10:38 45.43619 9.28071 361 ft 27 kts 175°
2026-05-06 10:38 45.43499 9.28083 363 ft 12 kts 180°
2026-05-06 10:38 45.43445 9.27997 363 ft 13 kts 264°
2026-05-06 10:38 45.43441 9.27878 364 ft 9 kts 274°
2026-05-06 10:39 45.43449 9.27826 363 ft 4 kts 301°
2026-05-06 10:39 45.43468 9.27819 365 ft 0 kts 354°
2026-05-06 10:39 45.43506 9.27815 362 ft 22 kts 355°
2026-05-06 10:39 45.43979 9.27764 364 ft 110 kts 355°
2026-05-06 10:40 45.44982 9.27663 393 ft 172 kts 356°
2026-05-06 10:40 45.46164 9.27558 1146 ft 171 kts 359°
2026-05-06 10:40 45.47356 9.27414 1922 ft 172 kts
2026-05-06 10:40 45.48446 9.27259 2592 ft 170 kts 359°
2026-05-06 10:41 45.49510 9.27115 3218 ft 171 kts 358°
2026-05-06 10:41 45.50724 9.26972 3786 ft 183 kts 356°
2026-05-06 10:41 45.52072 9.26825 4192 ft 205 kts 356°
2026-05-06 10:41 45.53581 9.26660 4584 ft 230 kts 354°
2026-05-06 10:42 45.55263 9.26470 5134 ft 255 kts 354°
2026-05-06 10:42 45.57119 9.26268 5879 ft 279 kts 354°
2026-05-06 10:42 45.59122 9.26047 6784 ft 295 kts 353°
2026-05-06 10:42 45.61181 9.25785 7788 ft 300 kts 352°
2026-05-06 10:43 45.63224 9.25092 8793 ft 304 kts 342°
2026-05-06 10:43 45.65263 9.24215 9812 ft 308 kts 341°
2026-05-06 10:43 45.67332 9.23320 10727 ft 313 kts 341°
2026-05-06 10:44 45.71697 9.22243 12588 ft 324 kts 351°
2026-05-06 10:44 45.73954 9.21844 13515 ft 329 kts 350°
2026-05-06 10:44 45.76247 9.21434 14335 ft 335 kts 350°
2026-05-06 10:44 45.78576 9.21017 15126 ft 340 kts 350°
2026-05-06 10:45 45.80944 9.20591 15934 ft 346 kts 350°
2026-05-06 10:45 45.83344 9.20077 16692 ft 351 kts 343°
2026-05-06 10:45 45.85663 9.18979 17439 ft 354 kts 332°
2026-05-06 10:45 45.87889 9.17177 17682 ft 372 kts 321°
2026-05-06 10:46 45.90094 9.15045 18052 ft 389 kts 321°
2026-05-06 10:46 45.92364 9.12860 18637 ft 396 kts 321°
2026-05-06 10:46 45.94665 9.10657 19321 ft 400 kts 321°
2026-05-06 10:46 45.97079 9.08615 20037 ft 408 kts 330°
2026-05-06 10:47 45.99761 9.07172 20789 ft 417 kts 341°
2026-05-06 10:47 46.02642 9.06418 21471 ft 426 kts 351°
2026-05-06 10:47 46.05599 9.05958 22174 ft 430 kts 351°
2026-05-06 10:47 46.08586 9.05484 22861 ft 434 kts 351°
2026-05-06 10:48 46.11593 9.04998 23518 ft 439 kts 350°
2026-05-06 10:48 46.14647 9.04496 24079 ft 443 kts 349°
2026-05-06 10:48 46.17726 9.03996 24685 ft 448 kts 350°
2026-05-06 10:48 46.20848 9.03538 25208 ft 453 kts 350°
2026-05-06 10:49 46.24005 9.03116 25733 ft 458 kts 351°
2026-05-06 10:49 46.27195 9.02713 26255 ft 462 kts 351°
2026-05-06 10:49 46.30407 9.02312 26775 ft 466 kts 350°
2026-05-06 10:49 46.33648 9.01902 27259 ft 470 kts 350°
2026-05-06 10:50 46.36920 9.01477 27757 ft 474 kts 349°
2026-05-06 10:50 46.40216 9.01037 28240 ft 477 kts 349°
2026-05-06 10:50 46.43526 9.00587 28703 ft 481 kts 349°
2026-05-06 10:50 46.46875 9.00128 29116 ft 485 kts 349°
2026-05-06 10:51 46.50239 8.99668 29526 ft 488 kts 348°
2026-05-06 10:51 46.53634 8.99206 29820 ft 491 kts 348°
2026-05-06 10:51 46.56997 8.98759 29855 ft 477 kts 348°
2026-05-06 10:52 46.63483 8.97913 29848 ft 462 kts 348°
2026-05-06 10:52 46.69854 8.97050 29850 ft 459 kts 348°
2026-05-06 10:53 46.76212 8.96160 29843 ft 459 kts 348°
2026-05-06 10:53 46.82612 8.95274 29828 ft 459 kts 349°
2026-05-06 10:54 46.88985 8.94408 29834 ft 460 kts 349°
2026-05-06 10:54 46.95346 8.93548 29833 ft 459 kts 349°
2026-05-06 10:55 47.01707 8.92675 29821 ft 458 kts 349°
2026-05-06 10:55 47.08051 8.91800 29822 ft 458 kts 349°
2026-05-06 10:56 47.14403 8.90926 29819 ft 459 kts 349°
2026-05-06 10:56 47.20766 8.90050 29822 ft 458 kts 349°
2026-05-06 10:57 47.27116 8.89172 29828 ft 458 kts 350°
2026-05-06 10:57 47.33530 8.89228 29828 ft 463 kts 359°
2026-05-06 10:58 47.39962 8.89702 29824 ft 463 kts 359°
2026-05-06 10:58 47.46387 8.90178 29828 ft 462 kts 359°
2026-05-06 10:59 47.52806 8.90648 29826 ft 462 kts 359°
2026-05-06 10:59 47.59233 8.91100 29822 ft 462 kts 359°
2026-05-06 11:00 47.65647 8.91557 29817 ft 461 kts 359°
2026-05-06 11:00 47.72051 8.92032 29819 ft 461 kts 360°
2026-05-06 11:01 47.78456 8.92520 29822 ft 461 kts 360°
2026-05-06 11:01 47.84898 8.92996 29817 ft 460 kts 359°
2026-05-06 11:02 47.91294 8.93463 29811 ft 460 kts 359°
2026-05-06 11:02 47.97681 8.93923 29809 ft 459 kts 360°
2026-05-06 11:03 48.04079 8.94383 29848 ft 459 kts
2026-05-06 11:03 48.10447 8.94856 29835 ft 458 kts
2026-05-06 11:04 48.16787 8.95343 29845 ft 455 kts
2026-05-06 11:04 48.23081 8.96122 29841 ft 453 kts
2026-05-06 11:05 48.29347 8.97176 29841 ft 452 kts
2026-05-06 11:05 48.35577 8.98211 29832 ft 450 kts
2026-05-06 11:06 48.41814 8.99162 29820 ft 449 kts
2026-05-06 11:06 48.48036 9.00098 29819 ft 449 kts
2026-05-06 11:07 48.54249 9.01041 29817 ft 449 kts
2026-05-06 11:07 48.57348 9.01512 29384 ft 447 kts
2026-05-06 11:07 48.60443 9.01983 28601 ft 447 kts
2026-05-06 11:07 48.63524 9.02465 28037 ft 443 kts
2026-05-06 11:08 48.65588 9.02857 27653 ft 440 kts
2026-05-06 11:08 48.69617 9.03784 26857 ft 437 kts
2026-05-06 11:08 48.71601 9.04291 26471 ft 435 kts 10°
2026-05-06 11:08 48.74564 9.05069 25902 ft 431 kts
2026-05-06 11:09 48.77503 9.05834 25332 ft 427 kts
2026-05-06 11:09 48.80424 9.06572 24772 ft 423 kts
2026-05-06 11:09 48.83321 9.07277 24239 ft 419 kts
2026-05-06 11:09 48.86193 9.07961 23711 ft 416 kts
2026-05-06 11:10 48.89033 9.08614 23181 ft 412 kts
2026-05-06 11:10 48.91861 9.09125 22670 ft 407 kts
2026-05-06 11:10 48.94664 9.09518 22192 ft 401 kts
2026-05-06 11:10 48.97432 9.09852 21716 ft 397 kts
2026-05-06 11:11 49.00178 9.10174 21226 ft 394 kts
2026-05-06 11:11 49.02905 9.10511 20743 ft 390 kts
2026-05-06 11:11 49.05588 9.10870 20248 ft 387 kts
2026-05-06 11:11 49.08259 9.11250 19754 ft 385 kts
2026-05-06 11:12 49.10925 9.11637 19242 ft 384 kts
2026-05-06 11:12 49.13585 9.12024 18727 ft 383 kts
2026-05-06 11:12 49.16231 9.12409 18209 ft 383 kts
2026-05-06 11:12 49.18879 9.12795 17651 ft 383 kts
2026-05-06 11:13 49.21530 9.13178 17115 ft 381 kts
2026-05-06 11:13 49.24194 9.13556 16593 ft 378 kts
2026-05-06 11:13 49.26767 9.13921 16090 ft 375 kts
2026-05-06 11:13 49.29371 9.14495 15579 ft 373 kts 12°
2026-05-06 11:14 49.31896 9.15395 15067 ft 372 kts 12°
2026-05-06 11:14 49.34384 9.16280 14563 ft 370 kts 12°
2026-05-06 11:14 49.36927 9.17186 14046 ft 369 kts 12°
2026-05-06 11:14 49.39425 9.18074 13538 ft 368 kts 12°
2026-05-06 11:15 49.41914 9.18952 12999 ft 366 kts 12°
2026-05-06 11:15 49.44385 9.19826 12497 ft 362 kts 12°
2026-05-06 11:15 49.46823 9.20692 12001 ft 359 kts 12°
2026-05-06 11:15 49.49246 9.21555 11513 ft 355 kts 12°
2026-05-06 11:16 49.51644 9.22409 11021 ft 351 kts 12°
2026-05-06 11:16 49.54014 9.23253 10522 ft 348 kts 12°
2026-05-06 11:16 49.56359 9.24091 10035 ft 345 kts 12°
2026-05-06 11:16 49.58695 9.24925 9773 ft 344 kts 11°
2026-05-06 11:17 49.61025 9.25755 9791 ft 345 kts 12°
2026-05-06 11:17 49.63353 9.26585 9786 ft 343 kts 11°
2026-05-06 11:17 49.65691 9.27422 9790 ft 344 kts 12°
2026-05-06 11:17 49.68023 9.28260 9791 ft 344 kts 12°
2026-05-06 11:18 49.70355 9.29100 9787 ft 344 kts 12°
2026-05-06 11:18 49.72686 9.29942 9787 ft 344 kts 12°
2026-05-06 11:18 49.75019 9.30782 9789 ft 344 kts 12°
2026-05-06 11:18 49.77352 9.31622 9788 ft 345 kts 12°
2026-05-06 11:19 49.79684 9.32462 9782 ft 344 kts 12°
2026-05-06 11:19 49.82032 9.33257 9781 ft 344 kts
2026-05-06 11:19 49.84376 9.32976 9782 ft 337 kts 339°
2026-05-06 11:19 49.86453 9.31392 9593 ft 329 kts 326°
2026-05-06 11:20 49.88383 9.29508 9007 ft 327 kts 324°
2026-05-06 11:20 49.90286 9.27600 8439 ft 324 kts 324°
2026-05-06 11:20 49.92164 9.25705 7859 ft 322 kts 324°
2026-05-06 11:20 49.94028 9.23804 7267 ft 319 kts 324°
2026-05-06 11:21 49.95872 9.21911 6715 ft 316 kts 324°
2026-05-06 11:21 49.97696 9.20035 6192 ft 313 kts 324°
2026-05-06 11:21 49.99502 9.18172 5626 ft 310 kts 323°
2026-05-06 11:21 50.01315 9.16310 5170 ft 304 kts 323°
2026-05-06 11:22 50.03050 9.14516 4800 ft 296 kts 324°
2026-05-06 11:22 50.04628 9.12566 4398 ft 284 kts 309°
2026-05-06 11:22 50.05836 9.10219 4173 ft 271 kts 304°
2026-05-06 11:22 50.06939 9.07939 4034 ft 256 kts 304°
2026-05-06 11:23 50.07987 9.05797 3988 ft 240 kts 304°
2026-05-06 11:23 50.08987 9.03773 3993 ft 234 kts 304°
2026-05-06 11:23 50.09976 9.01764 3994 ft 233 kts 304°
2026-05-06 11:23 50.10960 8.99766 3995 ft 233 kts 304°
2026-05-06 11:24 50.11925 8.97737 3997 ft 232 kts 296°
2026-05-06 11:24 50.12407 8.95460 3997 ft 214 kts 271°
2026-05-06 11:24 50.12242 8.93294 3996 ft 193 kts 248°
2026-05-06 11:24 50.11774 8.91410 3996 ft 183 kts 246°
2026-05-06 11:25 50.11324 8.89576 3997 ft 180 kts 247°
2026-05-06 11:25 50.10891 8.87759 3997 ft 178 kts 247°
2026-05-06 11:25 50.10462 8.85943 3976 ft 178 kts 247°
2026-05-06 11:25 50.10035 8.84133 3781 ft 179 kts 248°
2026-05-06 11:26 50.09605 8.82306 3547 ft 179 kts 248°
2026-05-06 11:26 50.09176 8.80485 3311 ft 179 kts 248°
2026-05-06 11:26 50.08750 8.78681 3074 ft 177 kts 248°
2026-05-06 11:26 50.08325 8.76882 2836 ft 176 kts 248°
2026-05-06 11:27 50.07906 8.75105 2603 ft 175 kts 248°
2026-05-06 11:27 50.07482 8.73314 2373 ft 176 kts 248°
2026-05-06 11:27 50.07075 8.71593 2141 ft 162 kts 248°
2026-05-06 11:27 50.06708 8.70038 1925 ft 144 kts 247°
2026-05-06 11:28 50.06375 8.68632 1748 ft 135 kts 248°
2026-05-06 11:28 50.06051 8.67270 1564 ft 134 kts 247°
2026-05-06 11:28 50.05734 8.65933 1401 ft 129 kts 247°
2026-05-06 11:28 50.05420 8.64614 1227 ft 130 kts 248°
2026-05-06 11:29 50.05105 8.63286 1043 ft 129 kts 245°
2026-05-06 11:29 50.04796 8.61978 885 ft 128 kts 245°
2026-05-06 11:29 50.04483 8.60684 680 ft 127 kts 242°
2026-05-06 11:29 50.04173 8.59356 518 ft 129 kts 246°
2026-05-06 11:30 50.03868 8.58075 366 ft 120 kts 249°
2026-05-06 11:30 50.03629 8.57074 354 ft 73 kts 250°
2026-05-06 11:30 50.03505 8.56555 359 ft 40 kts 250°
2026-05-06 11:30 50.03442 8.56263 354 ft 25 kts 260°
2026-05-06 11:31 50.03445 8.55982 346 ft 28 kts 280°
2026-05-06 11:31 50.03468 8.55769 351 ft 15 kts 279°
2026-05-06 11:31 50.03487 8.55598 345 ft 17 kts 279°
2026-05-06 11:31 50.03475 8.55403 353 ft 20 kts 250°
2026-05-06 11:32 50.03424 8.55188 346 ft 23 kts 249°
2026-05-06 11:32 50.03387 8.55029 350 ft 12 kts 257°
2026-05-06 11:32 50.03416 8.54898 345 ft 11 kts 295°
2026-05-06 11:32 50.03468 8.54837 346 ft 9 kts 339°
2026-05-06 11:33 50.03532 8.54800 348 ft 14 kts 339°
2026-05-06 11:33 50.03636 8.54740 348 ft 10 kts 340°
2026-05-06 11:33 50.03699 8.54708 345 ft 8 kts 353°
2026-05-06 11:33 50.03757 8.54749 352 ft 11 kts 50°
2026-05-06 11:34 50.03791 8.54874 349 ft 14 kts 69°
2026-05-06 11:34 50.03831 8.55039 352 ft 19 kts 70°
2026-05-06 11:34 50.03876 8.55226 355 ft 18 kts 69°
2026-05-06 11:34 50.03918 8.55403 352 ft 17 kts 69°
2026-05-06 11:35 50.03958 8.55571 354 ft 16 kts 70°
2026-05-06 11:35 50.03996 8.55730 358 ft 17 kts 70°
2026-05-06 11:35 50.04041 8.55919 354 ft 18 kts 69°
2026-05-06 11:35 50.04083 8.56094 357 ft 17 kts 69°
2026-05-06 11:36 50.04122 8.56258 353 ft 21 kts 70°
2026-05-06 11:36 50.04177 8.56485 358 ft 22 kts 70°
2026-05-06 11:36 50.04225 8.56689 357 ft 15 kts 70°
2026-05-06 11:36 50.04248 8.56776 362 ft 7 kts 56°
2026-05-06 11:37 50.04297 8.56812 361 ft 9 kts 11°
2026-05-06 11:37 50.04357 8.56831 360 ft 8 kts 12°
2026-05-06 11:37 50.04426 8.56848 361 ft 12 kts
2026-05-06 11:37 50.04511 8.56876 359 ft 13 kts 13°
2026-05-06 11:38 50.04598 8.56908 358 ft 14 kts 13°
2026-05-06 11:38 50.04667 8.56944 359 ft 10 kts 24°
2026-05-06 11:38 50.04726 8.56986 357 ft 10 kts 24°
2026-05-06 11:38 50.04786 8.57028 358 ft 9 kts 25°
2026-05-06 11:39 50.04843 8.57069 359 ft 9 kts 25°
2026-05-06 11:39 50.04880 8.57095 359 ft 5 kts 26°
2026-05-06 11:39 50.04894 8.57132 356 ft 4 kts 70°
2026-05-06 11:39 50.04891 8.57148 362 ft 1 kts 143°
2026-05-06 11:40 50.04887 8.57149 364 ft 0 kts 158°
2026-05-06 11:40 50.04882 8.57152 364 ft 0 kts 159°